Date String (YYYY-MM-DD hh:mm:ss) UTC,Instrument flags,absolute air pressure of the measurement (hPa),sample flow rate (lpm),inlet stack bypass flow (lpm),air temperature of the measurement (°C),ambient temperature measured by the external sensor (°C),aerosol sample conditioner tube jacket temperature (°C),OPC LED temperature (°C),internal box temperature (°C),relative humidity of the measurement (%),span deviation,mass concentration of particles derived from Lorenz-Mie calculation of OPC scattering (μg/m³),mass concentration of particles derived from Lorenz-Mie calculation of OPC scattering (μg/m³),mass concentration of particles derived from Lorenz-Mie calculation of OPC scattering (μg/m³)
DateTimeUTC,F1_M11,P_M11,Q1_M11,Q2_M11,T1_M11,T2_M11,T3_M11,T4_M11,T5_M11,U1_M11,ZSPAN_M11,X2_M11,X0_M11,X1_M11
2023-07-19 08:00:00,SystemResetWarning,0835.2,5.00,000.00,029.1,027.6,000.0,037.6,030.8,34.5,0000.0,0006.68,0014.75,0005.79
2023-07-19 08:01:00,SystemResetWarning,0835.1,4.98,000.00,029.2,027.8,000.0,037.6,030.9,34.6,0000.0,0006.70,0014.41,0005.79
2023-07-19 08:02:00,SystemResetWarning,0835.0,5.00,000.00,029.2,028.0,000.0,037.6,030.9,34.6,0000.0,0006.70,0014.23,0005.80
2023-07-19 08:03:00,SystemResetWarning,0834.6,5.02,000.00,029.2,028.1,000.0,037.6,031.0,33.6,0000.0,0006.71,0014.34,0005.81
2023-07-19 08:04:00,SystemResetWarning,0834.8,5.00,000.00,029.3,027.9,000.0,037.6,031.0,32.8,0000.0,0006.75,0014.53,0005.82
2023-07-19 08:05:00,SystemResetWarning,0835.0,4.98,000.00,029.3,026.4,000.0,037.5,030.8,33.6,0000.0,0006.73,0014.42,0005.83
2023-07-19 08:06:00,SystemResetWarning,0834.5,5.02,000.00,029.2,025.5,000.0,037.4,030.6,33.9,0000.0,0006.70,0014.47,0005.84
2023-07-19 08:07:00,SystemResetWarning,0834.5,5.00,000.00,029.1,025.6,000.0,037.4,030.4,33.3,0000.0,0006.71,0013.39,0005.84
2023-07-19 08:08:00,SystemResetWarning,0834.6,5.00,000.00,029.0,025.9,000.0,037.5,030.4,33.4,0000.0,0006.74,0013.42,0005.86
2023-07-19 08:09:00,SystemResetWarning,0834.9,4.99,000.00,029.0,026.3,000.0,037.5,030.5,33.7,0000.0,0006.78,0013.56,0005.89
2023-07-19 08:10:00,SystemResetWarning,0835.1,5.00,000.00,029.0,026.6,000.0,037.5,030.6,33.7,0000.0,0006.83,0013.35,0005.91
2023-07-19 08:11:00,SystemResetWarning,0835.0,5.00,000.00,029.1,027.0,000.0,037.5,030.6,34.1,0000.0,0006.90,0013.52,0005.93
2023-07-19 08:12:00,SystemResetWarning,0834.7,5.00,000.00,029.1,027.2,000.0,037.6,030.7,34.8,0000.0,0006.91,0013.48,0005.95
2023-07-19 08:13:00,SystemResetWarning,0834.9,4.98,000.00,029.1,027.5,000.0,037.6,030.8,35.1,0000.0,0006.95,0013.64,0005.97
2023-07-19 08:14:00,SystemResetWarning,0834.9,5.04,000.00,029.3,027.7,000.0,037.6,030.9,35.1,0000.0,0006.98,0013.13,0005.98
2023-07-19 08:15:00,SystemResetWarning,0834.8,4.96,000.00,029.6,027.8,000.0,037.6,031.1,34.1,0000.0,0006.98,0013.80,0005.98
2023-07-19 08:16:00,SystemResetWarning,0834.7,5.02,000.00,029.8,028.0,000.0,037.7,031.1,33.5,0000.0,0007.00,0014.08,0006.00
2023-07-19 08:17:00,SystemResetWarning,0834.6,5.00,000.00,029.9,028.1,000.0,037.7,031.2,33.3,0000.0,0007.04,0013.71,0006.01
2023-07-19 08:18:00,SystemResetWarning,0834.8,4.98,000.00,030.0,027.9,000.0,037.8,031.2,33.0,0000.0,0007.07,0014.04,0006.03
2023-07-19 08:19:00,SystemResetWarning,0835.1,4.99,000.00,030.0,026.3,000.0,037.7,031.0,32.5,0000.0,0007.07,0014.08,0006.04
2023-07-19 08:20:00,SystemResetWarning,0835.0,5.00,000.00,030.0,025.5,000.0,037.7,030.8,32.3,0000.0,0007.10,0013.66,0006.05
2023-07-19 08:21:00,SystemResetWarning,0834.6,5.00,000.00,029.9,025.6,000.0,037.7,030.5,32.4,0000.0,0007.12,0013.67,0006.07
2023-07-19 08:22:00,SystemResetWarning,0835.0,5.01,000.00,029.8,026.0,000.0,037.8,030.6,32.2,0000.0,0007.15,0014.17,0006.10
2023-07-19 08:23:00,SystemResetWarning,0835.0,4.99,000.00,029.8,026.4,000.0,037.9,030.7,32.2,0000.0,0007.21,0014.86,0006.13
2023-07-19 08:24:00,SystemResetWarning,0835.0,4.99,000.00,029.8,026.7,000.0,037.9,030.8,32.4,0000.0,0007.25,0015.04,0006.14
2023-07-19 08:25:00,SystemResetWarning,0835.1,5.00,000.00,029.8,027.1,000.0,038.0,030.8,32.3,0000.0,0007.25,0015.58,0006.16
2023-07-19 08:26:00,SystemResetWarning,0834.7,5.00,000.00,029.8,027.3,000.0,038.0,030.9,31.9,0000.0,0007.25,0014.85,0006.17
2023-07-19 08:27:00,SystemResetWarning,0835.0,5.01,000.00,029.9,027.6,000.0,038.0,031.0,31.7,0000.0,0007.28,0014.29,0006.17
2023-07-19 08:28:00,SystemResetWarning,0834.8,5.01,000.00,029.9,027.7,000.0,038.1,031.0,31.9,0000.0,0007.27,0014.16,0006.16
2023-07-19 08:29:00,SystemResetWarning,0834.9,5.01,000.00,029.9,027.9,000.0,038.1,031.1,31.9,0000.0,0007.28,0014.09,0006.15
2023-07-19 08:30:00,SystemResetWarning,0834.7,4.99,000.00,029.9,028.1,000.0,038.1,031.1,31.9,0000.0,0007.31,0014.53,0006.16
2023-07-19 08:31:00,SystemResetWarning,0835.0,4.99,000.00,029.9,028.2,000.0,038.2,031.2,31.5,0000.0,0007.32,0014.85,0006.16
2023-07-19 08:32:00,SystemResetWarning,0834.8,4.99,000.00,030.0,028.2,000.0,038.2,031.2,31.5,0000.0,0007.35,0014.93,0006.17
2023-07-19 08:33:00,SystemResetWarning,0834.5,5.00,000.00,030.0,026.9,000.0,038.1,031.1,31.4,0000.0,0007.32,0015.38,0006.16
2023-07-19 08:34:00,SystemResetWarning,0834.5,5.00,000.00,029.9,025.6,000.0,038.0,030.8,31.5,0000.0,0007.27,0015.09,0006.15
2023-07-19 08:35:00,SystemResetWarning,0834.5,5.00,000.00,029.8,025.5,000.0,037.9,030.7,31.5,0000.0,0007.23,0015.07,0006.16
2023-07-19 08:36:00,SystemResetWarning,0834.4,5.01,000.00,029.7,025.8,000.0,038.0,030.6,31.7,0000.0,0007.22,0014.77,0006.15
2023-07-19 08:37:00,SystemResetWarning,0834.4,5.00,000.00,029.7,026.2,000.0,038.0,030.7,32.0,0000.0,0007.22,0014.69,0006.16
2023-07-19 08:38:00,SystemResetWarning,0834.4,4.99,000.00,029.6,026.6,000.0,038.0,030.8,31.9,0000.0,0007.21,0014.72,0006.17
2023-07-19 08:39:00,SystemResetWarning,0834.4,5.00,000.00,029.7,026.9,000.0,038.0,030.8,31.9,0000.0,0007.22,0014.72,0006.18
2023-07-19 08:40:00,SystemResetWarning,0834.4,5.00,000.00,029.7,027.2,000.0,038.0,030.9,31.7,0000.0,0007.19,0014.50,0006.19
2023-07-19 08:41:00,SystemResetWarning,0834.4,5.01,000.00,029.7,027.5,000.0,038.1,031.0,31.4,0000.0,0007.17,0014.17,0006.20
2023-07-19 08:42:00,SystemResetWarning,0834.4,5.01,000.00,029.7,027.7,000.0,038.1,031.0,31.0,0000.0,0007.10,0013.79,0006.19
2023-07-19 08:43:00,SystemResetWarning,0834.3,4.99,000.00,029.7,027.9,000.0,038.1,031.1,31.0,0000.0,0007.06,0015.00,0006.19
2023-07-19 08:44:00,SystemResetWarning,0834.3,4.99,000.00,029.7,028.0,000.0,038.1,031.1,31.0,0000.0,0007.01,0014.09,0006.18
2023-07-19 08:45:00,SystemResetWarning,0834.3,5.00,000.00,029.7,028.1,000.0,038.1,031.2,31.2,0000.0,0007.04,0013.72,0006.18
2023-07-19 08:46:00,SystemResetWarning,0834.3,5.00,000.00,029.8,028.1,000.0,038.1,031.2,31.0,0000.0,0007.14,0013.89,0006.18
2023-07-19 08:47:00,SystemResetWarning,0834.2,5.00,000.00,029.8,026.6,000.0,038.0,031.0,30.9,0000.0,0007.22,0014.44,0006.20
2023-07-19 08:48:00,SystemResetWarning,0834.1,5.01,000.00,029.7,025.6,000.0,037.9,030.8,31.2,0000.0,0007.25,0014.82,0006.21
2023-07-19 08:49:00,SystemResetWarning,0834.1,5.01,000.00,029.6,025.6,000.0,037.9,030.6,31.5,0000.0,0007.27,0015.06,0006.23
2023-07-19 08:50:00,SystemResetWarning,0834.1,5.00,000.00,029.5,025.9,000.0,037.9,030.6,31.3,0000.0,0007.30,0015.80,0006.25
2023-07-19 08:51:00,SystemResetWarning,0834.1,4.99,000.00,029.5,026.3,000.0,037.9,030.6,31.4,0000.0,0007.36,0016.18,0006.26
2023-07-19 08:52:00,SystemResetWarning,0834.2,4.99,000.00,029.5,026.6,000.0,037.9,030.7,31.3,0000.0,0007.41,0016.69,0006.28
2023-07-19 08:53:00,SystemResetWarning,0834.1,5.01,000.00,029.5,027.0,000.0,038.0,030.8,31.2,0000.0,0007.44,0016.69,0006.29
2023-07-19 08:54:00,SystemResetWarning,0834.1,5.01,000.00,029.5,027.3,000.0,038.0,030.9,31.2,0000.0,0007.45,0015.48,0006.30
2023-07-19 08:55:00,SystemResetWarning,0834.2,5.00,000.00,029.5,027.5,000.0,038.0,030.9,31.2,0000.0,0007.49,0015.74,0006.30
2023-07-19 08:56:00,SystemResetWarning,0834.1,4.99,000.00,029.5,027.7,000.0,038.0,031.0,31.0,0000.0,0007.50,0015.90,0006.30
2023-07-19 08:57:00,SystemResetWarning,0834.2,5.00,000.00,029.5,027.9,000.0,038.0,031.0,30.9,0000.0,0007.47,0016.16,0006.31
2023-07-19 08:58:00,SystemResetWarning,0834.1,4.99,000.00,029.6,028.0,000.0,038.0,031.1,30.8,0000.0,0007.41,0016.16,0006.31
2023-07-19 08:59:00,SystemResetWarning,0834.1,5.00,000.00,029.6,028.1,000.0,038.0,031.1,30.6,0000.0,0007.35,0015.51,0006.29
